Philip, SD

7:04 AM MDT on August 23, 2017 (GMT -0600)
Philip

Weather History for KPHP - October, 2011

Change the Weather History Date:

Thursday, October 13, 2011

  Actual Average Record
Temperature  
Mean Temperature 52 °F 50 °F  
Max Temperature 67 °F 65 °F 94 °F (1958)
Min Temperature 37 °F 35 °F 16 °F (1986)
Degree Days  
Heating Degree Days 13 15  
Month to date heating degree days 84 166  
Since 1 July heating degree days 203 352  
Cooling Degree Days 0 0  
Month to date cooling degree days 36 0  
Year to date cooling degree days 837 814  
Growing Degree Days 2 (Base 50)    
Moisture  
Dew Point 29 °F    
Average Humidity 49    
Maximum Humidity 76    
Minimum Humidity 22    
Precipitation  
Precipitation 0.00 in 0.04 in 1.02 in (2007)
Month to date precipitation 0.24 0.65  
Year to date precipitation 15.32 15.52  
Sea Level Pressure  
Sea Level Pressure 29.93 in    
Wind  
Wind Speed 14 mph (WNW)    
Max Wind Speed 32 mph    
Max Gust Speed 43 mph    
Visibility 10 miles    
Events Rain    
T = Trace of Precipitation, MM = Missing Value Source: NWS Daily Summary

Daily Weather History Graph

Daily Weather History Graph

Search for Another Location

Airport or City:

Trip Planner

Search our weather history database for the weather conditions in past years. The results will help you decide how hot, cold, wet, or windy it might be!

Date:

Astronomy

Oct. 13, 2011 Rise Set
Actual Time 6:58 AM MDT 6:06 PM MDT
Civil Twilight 6:29 AM MDT 6:35 PM MDT
Nautical Twilight 5:55 AM MDT 7:08 PM MDT
Astronomical Twilight 5:22 AM MDT 7:42 PM MDT
Moon 6:36 PM MDT (10/13) 8:37 AM MDT (10/13)
Length of Visible Light 12h 06m
Length of Day
11h 08m
Full, 98% of the Moon is Illuminated
Oct 13
Full
Oct 19
Last Quarter
Oct 26
New
Nov 2
First Quarter
Nov 10
Full

Hourly Weather History & Observations

Time (MDT) Temp. Windchill Dew Point Humidity Pressure Visibility Wind Dir Wind Speed Gust Speed Precip Events Conditions
12:55 AM 39.9 °F 33.9 °F 32.0 °F 73% 29.94 in 10.0 mi WSW 9.2 mph - N/A   Clear
1:55 AM 39.9 °F 33.9 °F 32.0 °F 73% 29.94 in 10.0 mi WSW 9.2 mph - N/A   Clear
2:55 AM 37.9 °F 31.5 °F 30.9 °F 76% 29.93 in 10.0 mi WSW 9.2 mph - N/A   Clear
3:55 AM 37.9 °F 30.9 °F 30.9 °F 76% 29.92 in 10.0 mi West 10.4 mph - N/A   Clear
4:55 AM 39.0 °F 32.3 °F 30.9 °F 73% 29.92 in 10.0 mi WSW 10.4 mph - N/A   Clear
5:55 AM 42.1 °F 37.7 °F 32.0 °F 67% 29.93 in 10.0 mi West 6.9 mph - N/A   Clear
6:55 AM 43.0 °F 36.8 °F 33.1 °F 68% 29.94 in 10.0 mi West 11.5 mph - N/A   Clear
7:55 AM 44.1 °F 38.6 °F 33.1 °F 65% 29.95 in 10.0 mi West 10.4 mph - N/A   Clear
8:55 AM 50.0 °F - 33.1 °F 52% 29.95 in 10.0 mi West 12.7 mph - N/A   Clear
9:55 AM 57.9 °F - 30.9 °F 36% 29.94 in 10.0 mi NW 13.8 mph - N/A   Clear
10:55 AM 61.0 °F - 30.0 °F 31% 29.94 in 10.0 mi NW 18.4 mph 26.5 mph N/A   Clear
11:55 AM 62.1 °F - 30.0 °F 30% 29.93 in 10.0 mi NW 18.4 mph 26.5 mph N/A   Clear
12:55 PM 64.9 °F - 28.9 °F 26% 29.90 in 10.0 mi NW 27.6 mph 35.7 mph N/A   Clear
1:55 PM 66.0 °F - 27.0 °F 23% 29.88 in 10.0 mi NW 26.5 mph 38.0 mph N/A   Clear
2:55 PM 64.9 °F - 25.0 °F 22% 29.87 in 10.0 mi NW 28.8 mph 38.0 mph 0.00 in Rain Light Rain
3:55 PM 64.0 °F - 23.0 °F 21% 29.88 in 10.0 mi NW 25.3 mph 36.8 mph 0.00 in   Partly Cloudy
4:55 PM 63.0 °F - 25.0 °F 24% 29.89 in 10.0 mi NW 21.9 mph 29.9 mph N/A   Clear
5:55 PM 59.0 °F - 25.0 °F 27% 29.90 in 10.0 mi WNW 15.0 mph 23.0 mph N/A   Clear
6:55 PM 53.1 °F - 26.1 °F 35% 29.92 in 10.0 mi WNW 10.4 mph - N/A   Clear
7:55 PM 46.9 °F - 28.0 °F 48% 29.95 in 10.0 mi West 8.1 mph - N/A   Clear
8:55 PM 45.0 °F 39.3 °F 27.0 °F 49% 29.96 in 10.0 mi WNW 11.5 mph - N/A   Clear
9:55 PM 42.1 °F 36.1 °F 27.0 °F 55% 29.97 in 10.0 mi West 10.4 mph - N/A   Clear
10:55 PM 42.1 °F 35.7 °F 27.0 °F 55% 29.97 in 10.0 mi WNW 11.5 mph - N/A   Clear
11:55 PM 39.0 °F 31.8 °F 27.0 °F 62% 29.98 in 10.0 mi WNW 11.5 mph - N/A   Clear